Location: Bottom School (historical)
(37.9078°N, 89.3593°W)
Time: 14:02:19
(UTC+00:00)

CZ-4B R/B - Pass Details

Date: 08 December 2021
Orbit: 809 x 881 km, 99.1° (Epoch: 19 January)

Event Time Altitude Azimuth Distance (km) Brightness Sun altitude
Rises 23:30:49 0° 144° (SE) 3,379 6.2 -10.3°
Reaches altitude 10° 23:33:19 10° 136° (SE) 2,437 5.4 -10.7°
Maximum altitude 23:38:16 39° 69° (ENE) 1,227 3.6 -11.7°
Drops below altitude 10° 23:43:10 10° 3° (N) 2,415 5.4 -12.6°
Sets 23:45:37 0° 355° (N) 3,345 6.2 -13.0°
